📊 Raw Sensor Data

Showing records 37351 to 37375 of 84,911 total

ID Distance (ft) Battery V Battery A Int Temp (°F) Int Humid (%) Ext Temp (°F) Solar V RSSI SNR Time Stamp
47573 15.4 3.93 0 68 44 70 5.10 -70 8 07/28/2025 08:30 AM
47572 15.4 3.93 5 67 44 69 5.10 -70 8 07/28/2025 08:15 AM
47571 15.4 3.93 6 66 43 69 5.10 -70 8 07/28/2025 08:00 AM
47570 15.4 4.00 42 65 43 70 4.50 -71 8 07/28/2025 07:45 AM
47569 15.3 3.94 0 63 42 68 4.50 -71 7 07/28/2025 07:30 AM
47568 15.4 3.95 10 61 42 68 4.50 -71 8 07/28/2025 07:15 AM
47567 15.3 3.88 0 59 43 67 4.60 -69 8 07/28/2025 07:00 AM
47566 15.2 3.88 0 57 43 63 4.50 -70 8 07/28/2025 06:45 AM
47565 15.2 3.87 0 56 43 60 4.50 -70 8 07/28/2025 06:30 AM
47564 15.2 3.86 -9 55 44 56 4.50 -70 8 07/28/2025 06:15 AM
47563 15.1 3.86 -9 55 44 56 1.60 -70 8 07/28/2025 06:00 AM
47562 15.1 3.92 -5 55 43 56 0.80 -71 8 07/28/2025 05:45 AM
47561 15.2 3.87 -5 55 43 56 0.00 -70 8 07/28/2025 05:30 AM
47560 15.1 3.87 -5 55 44 56 0.00 -70 8 07/28/2025 05:15 AM
47559 15.1 3.92 -5 55 44 57 0.00 -70 7 07/28/2025 05:00 AM
47558 15.1 3.87 -5 55 44 57 0.00 -71 8 07/28/2025 04:45 AM
47557 15.1 3.87 -5 55 44 56 0.00 -70 7 07/28/2025 04:30 AM
47556 15.2 3.87 -5 55 44 56 0.00 -71 8 07/28/2025 04:15 AM
47555 15.1 3.92 -5 55 44 56 0.00 -70 8 07/28/2025 04:00 AM
47554 15.1 3.87 -5 55 44 56 0.00 -69 8 07/28/2025 03:45 AM
47553 15.1 3.87 -5 55 44 57 0.00 -70 9 07/28/2025 03:30 AM
47552 15.1 3.87 -5 55 44 57 0.00 -69 8 07/28/2025 03:15 AM
47551 15.2 3.93 -5 56 44 57 0.00 -70 8 07/28/2025 03:00 AM
47550 15.2 3.93 -5 56 44 57 0.00 -69 7 07/28/2025 02:45 AM
47549 15.1 3.87 -5 57 44 57 0.00 -68 8 07/28/2025 02:30 AM